DLH695 LFBO-LEBB

Flight info

Callsign DLH695
Flight time 0h 48m
Altitude 27000
Route GAUDE DCT LATEK N995 PPN M601 CEGAM
Aircraft A320/M-SDE3FGHIRWY/LB1

Departure

Time 2026-04-27 19:26
Airport Toulouse-Blagnac Airport (LFBO)

Arrival

Time 2026-04-27 20:15
Airport Bilbao Airport (LEBB)
Time Latitude Longitude Altitude Speed Heading
2026-04-27 18:33 43.62979 1.37315 510 ft 0 kts 42°
2026-04-27 19:16 43.62971 1.37305 510 ft 4 kts 43°
2026-04-27 19:16 43.62958 1.37288 510 ft 4 kts 46°
2026-04-27 19:16 43.62936 1.37250 510 ft 4 kts 63°
2026-04-27 19:16 43.62932 1.37220 510 ft 3 kts 131°
2026-04-27 19:17 43.62935 1.37216 510 ft 0 kts 142°
2026-04-27 19:19 43.62929 1.37220 510 ft 3 kts 166°
2026-04-27 19:20 43.62904 1.37195 510 ft 7 kts 231°
2026-04-27 19:20 43.62869 1.37133 510 ft 9 kts 233°
2026-04-27 19:20 43.62829 1.37063 510 ft 10 kts 220°
2026-04-27 19:20 43.62764 1.37085 510 ft 11 kts 144°
2026-04-27 19:21 43.62699 1.37149 510 ft 12 kts 144°
2026-04-27 19:21 43.62629 1.37218 510 ft 13 kts 144°
2026-04-27 19:21 43.62553 1.37293 510 ft 14 kts 144°
2026-04-27 19:21 43.62471 1.37378 510 ft 15 kts 143°
2026-04-27 19:22 43.62385 1.37469 510 ft 16 kts 141°
2026-04-27 19:22 43.62296 1.37568 510 ft 17 kts 141°
2026-04-27 19:22 43.62199 1.37672 510 ft 18 kts 143°
2026-04-27 19:22 43.62094 1.37781 510 ft 19 kts 143°
2026-04-27 19:23 43.61983 1.37893 510 ft 20 kts 144°
2026-04-27 19:23 43.61865 1.38010 510 ft 21 kts 143°
2026-04-27 19:23 43.61762 1.38117 510 ft 12 kts 143°
2026-04-27 19:23 43.61688 1.38175 510 ft 13 kts 179°
2026-04-27 19:24 43.61646 1.38146 510 ft 4 kts 226°
2026-04-27 19:24 43.61643 1.38141 510 ft 0 kts 230°
2026-04-27 19:24 43.61642 1.38140 510 ft 2 kts 230°
2026-04-27 19:24 43.61605 1.38074 510 ft 15 kts 234°
2026-04-27 19:25 43.61581 1.38017 510 ft 4 kts 271°
2026-04-27 19:25 43.61600 1.37984 510 ft 5 kts 318°
2026-04-27 19:25 43.61629 1.37949 510 ft 6 kts 322°
2026-04-27 19:25 43.61670 1.37906 510 ft 12 kts 323°
2026-04-27 19:26 43.61863 1.37707 510 ft 62 kts 323°
2026-04-27 19:26 43.62357 1.37196 510 ft 114 kts 323°
2026-04-27 19:26 43.63123 1.36399 513 ft 160 kts 322°
2026-04-27 19:26 43.64020 1.35453 1107 ft 158 kts 321°
2026-04-27 19:27 43.64875 1.34526 1774 ft 160 kts 321°
2026-04-27 19:27 43.65762 1.33546 2341 ft 169 kts 321°
2026-04-27 19:27 43.66748 1.32457 2646 ft 194 kts 321°
2026-04-27 19:27 43.67894 1.31200 2842 ft 228 kts 322°
2026-04-27 19:28 43.69094 1.29500 3213 ft 261 kts 309°
2026-04-27 19:28 43.70210 1.27530 4475 ft 257 kts 307°
2026-04-27 19:28 43.70992 1.25256 5429 ft 271 kts 278°
2026-04-27 19:28 43.70795 1.22681 6574 ft 270 kts 251°
2026-04-27 19:29 43.69935 1.20349 7545 ft 280 kts 233°
2026-04-27 19:29 43.68487 1.18538 8528 ft 281 kts 210°
2026-04-27 19:29 43.66663 1.17618 9585 ft 284 kts 188°
2026-04-27 19:29 43.64644 1.17712 10225 ft 299 kts 171°
2026-04-27 19:30 43.62475 1.17833 10452 ft 328 kts 185°
2026-04-27 19:30 43.60112 1.17579 10785 ft 350 kts 185°
2026-04-27 19:30 43.57666 1.17217 11638 ft 353 kts 194°
2026-04-27 19:30 43.55355 1.16172 12728 ft 349 kts 202°
2026-04-27 19:31 43.53079 1.14935 13538 ft 354 kts 204°
2026-04-27 19:31 43.50861 1.13544 13935 ft 347 kts 210°
2026-04-27 19:31 43.48899 1.11862 14581 ft 333 kts 215°
2026-04-27 19:31 43.46912 1.10007 14824 ft 354 kts 216°
2026-04-27 19:32 43.44877 1.08015 15440 ft 361 kts 217°
2026-04-27 19:32 43.42844 1.05970 16183 ft 364 kts 217°
2026-04-27 19:32 43.40791 1.03891 16913 ft 367 kts 218°
2026-04-27 19:32 43.38725 1.01803 17614 ft 370 kts 217°
2026-04-27 19:33 43.36638 0.99697 18295 ft 373 kts 217°
2026-04-27 19:33 43.35251 0.98302 18728 ft 375 kts 217°
2026-04-27 19:33 43.32410 0.95457 19561 ft 379 kts 217°
2026-04-27 19:33 43.30265 0.93318 20176 ft 383 kts 217°
2026-04-27 19:34 43.28101 0.91175 20753 ft 386 kts 217°
2026-04-27 19:34 43.25903 0.89012 21316 ft 390 kts 217°
2026-04-27 19:34 43.23714 0.86867 21878 ft 392 kts 217°
2026-04-27 19:34 43.21483 0.84684 22422 ft 396 kts 217°
2026-04-27 19:35 43.19235 0.82480 22948 ft 399 kts 217°
2026-04-27 19:35 43.16964 0.80254 23475 ft 402 kts 217°
2026-04-27 19:35 43.14681 0.78020 23995 ft 405 kts 217°
2026-04-27 19:35 43.12377 0.75766 24495 ft 408 kts 217°
2026-04-27 19:36 43.10061 0.73499 24931 ft 411 kts 217°
2026-04-27 19:36 43.07734 0.71226 25070 ft 411 kts 217°
2026-04-27 19:36 43.05399 0.68944 25113 ft 412 kts 217°
2026-04-27 19:36 43.03253 0.66379 25118 ft 410 kts 227°
2026-04-27 19:37 43.01493 0.63314 25113 ft 409 kts 238°
2026-04-27 19:37 43.00192 0.59890 25113 ft 403 kts 248°
2026-04-27 19:37 42.99374 0.56167 25257 ft 413 kts 259°
2026-04-27 19:37 42.98987 0.52288 25853 ft 413 kts 262°
2026-04-27 19:38 42.98628 0.48381 26251 ft 416 kts 262°
2026-04-27 19:38 42.98257 0.44440 26678 ft 418 kts 262°
2026-04-27 19:38 42.97884 0.40501 27022 ft 420 kts 262°
2026-04-27 19:38 42.97510 0.36550 27108 ft 418 kts 262°
2026-04-27 19:39 42.97139 0.32622 27115 ft 417 kts 262°
2026-04-27 19:39 42.96770 0.28699 27109 ft 417 kts 262°
2026-04-27 19:39 42.96399 0.24777 27107 ft 417 kts 262°
2026-04-27 19:39 42.96028 0.20852 27108 ft 417 kts 262°
2026-04-27 19:40 42.95661 0.16965 27109 ft 418 kts 262°
2026-04-27 19:40 42.95283 0.12990 27109 ft 418 kts 262°
2026-04-27 19:40 42.94907 0.09051 27109 ft 418 kts 262°
2026-04-27 19:40 42.94536 0.05174 27109 ft 418 kts 262°
2026-04-27 19:41 42.94158 0.01243 27111 ft 418 kts 262°
2026-04-27 19:41 42.93776 -0.02735 27121 ft 415 kts 261°
2026-04-27 19:41 42.93402 -0.06626 27135 ft 413 kts 261°
2026-04-27 19:41 42.93025 -0.10506 27132 ft 412 kts 261°
2026-04-27 19:42 42.92643 -0.14383 27129 ft 412 kts 260°
2026-04-27 19:42 42.92262 -0.18216 27125 ft 412 kts 260°
2026-04-27 19:42 42.91871 -0.22144 27122 ft 412 kts 260°
2026-04-27 19:42 42.91484 -0.26054 27107 ft 422 kts 260°
2026-04-27 19:43 42.91087 -0.30053 27097 ft 429 kts 261°
2026-04-27 19:43 42.90691 -0.34043 27100 ft 430 kts 261°
2026-04-27 19:43 42.90289 -0.38082 27101 ft 430 kts 260°
2026-04-27 19:43 42.89886 -0.42121 27100 ft 430 kts 260°
2026-04-27 19:44 42.89476 -0.46213 27094 ft 430 kts 260°
2026-04-27 19:44 42.89073 -0.50205 27093 ft 430 kts 260°
2026-04-27 19:44 42.88663 -0.54241 27094 ft 430 kts 260°
2026-04-27 19:44 42.88252 -0.58278 27094 ft 430 kts 260°
2026-04-27 19:45 42.87840 -0.62313 27095 ft 430 kts 260°
2026-04-27 19:45 42.87425 -0.66348 27105 ft 430 kts 260°
2026-04-27 19:45 42.86963 -0.70381 27108 ft 429 kts 259°
2026-04-27 19:45 42.86448 -0.74381 27107 ft 429 kts 258°
2026-04-27 19:46 42.85901 -0.78380 27107 ft 429 kts 257°
2026-04-27 19:46 42.85343 -0.82376 27107 ft 430 kts 257°
2026-04-27 19:46 42.84787 -0.86378 27107 ft 430 kts 258°
2026-04-27 19:46 42.84239 -0.90382 27108 ft 430 kts 258°
2026-04-27 19:47 42.83882 -0.93048 27108 ft 430 kts 258°
2026-04-27 19:47 42.83353 -0.97040 27108 ft 429 kts 258°
2026-04-27 19:47 42.82822 -1.01046 27113 ft 429 kts 258°
2026-04-27 19:47 42.82290 -1.05043 27114 ft 429 kts 258°
2026-04-27 19:48 42.81583 -1.10349 27114 ft 429 kts 258°
2026-04-27 19:48 42.81222 -1.13042 27114 ft 429 kts 258°
2026-04-27 19:48 42.80687 -1.17036 27114 ft 429 kts 258°
2026-04-27 19:48 42.80149 -1.21030 27113 ft 429 kts 258°
2026-04-27 19:49 42.79607 -1.25031 27112 ft 429 kts 258°
2026-04-27 19:49 42.79065 -1.29020 27111 ft 429 kts 258°
2026-04-27 19:49 42.78519 -1.33008 27052 ft 428 kts 258°
2026-04-27 19:49 42.77978 -1.36956 26827 ft 423 kts 258°
2026-04-27 19:50 42.77435 -1.40912 26601 ft 426 kts 258°
2026-04-27 19:50 42.76889 -1.44883 26386 ft 427 kts 258°
2026-04-27 19:50 42.76342 -1.48850 26174 ft 426 kts 258°
2026-04-27 19:50 42.75793 -1.52802 26075 ft 424 kts 258°
2026-04-27 19:51 42.75244 -1.56753 26110 ft 427 kts 258°
2026-04-27 19:51 42.74693 -1.60716 26123 ft 425 kts 258°
2026-04-27 19:51 42.74340 -1.64711 26109 ft 425 kts 266°
2026-04-27 19:51 42.74496 -1.68727 26113 ft 427 kts 276°
2026-04-27 19:52 42.75164 -1.72678 26098 ft 432 kts 286°
2026-04-27 19:52 42.76362 -1.76447 26105 ft 437 kts 296°
2026-04-27 19:52 42.77977 -1.79986 26107 ft 442 kts 300°
2026-04-27 19:52 42.79643 -1.83529 26103 ft 442 kts 299°
2026-04-27 19:53 42.82939 -1.90534 26122 ft 440 kts 300°
2026-04-27 19:53 42.84590 -1.94046 26089 ft 439 kts 300°
2026-04-27 19:53 42.86232 -1.97554 26127 ft 440 kts 299°
2026-04-27 19:54 42.87876 -2.01074 26081 ft 440 kts 299°
2026-04-27 19:54 42.89499 -2.04562 25809 ft 437 kts 300°
2026-04-27 19:54 42.91120 -2.08032 25078 ft 429 kts 300°
2026-04-27 19:54 42.92708 -2.11429 24441 ft 420 kts 300°
2026-04-27 19:55 42.94263 -2.14762 23809 ft 413 kts 299°
2026-04-27 19:55 42.95788 -2.18040 23182 ft 406 kts 299°
2026-04-27 19:55 42.97288 -2.21268 22560 ft 399 kts 300°
2026-04-27 19:55 42.98769 -2.24458 21924 ft 394 kts 300°
2026-04-27 19:56 43.00232 -2.27599 21298 ft 389 kts 300°
2026-04-27 19:56 43.01684 -2.30698 20671 ft 385 kts 300°
2026-04-27 19:56 43.03125 -2.33761 20042 ft 381 kts 300°
2026-04-27 19:56 43.04551 -2.36792 19419 ft 377 kts 300°
2026-04-27 19:57 43.05964 -2.39802 18794 ft 373 kts 300°
2026-04-27 19:57 43.07357 -2.42778 18171 ft 370 kts 300°
2026-04-27 19:57 43.08741 -2.45734 17550 ft 366 kts 300°
2026-04-27 19:57 43.10108 -2.48658 16931 ft 363 kts 300°
2026-04-27 19:58 43.11462 -2.51559 16313 ft 360 kts 300°
2026-04-27 19:58 43.12803 -2.54439 15699 ft 357 kts 300°
2026-04-27 19:58 43.14131 -2.57298 15083 ft 354 kts 300°
2026-04-27 19:58 43.15447 -2.60132 14472 ft 351 kts 301°
2026-04-27 19:59 43.16751 -2.62937 13858 ft 347 kts 301°
2026-04-27 19:59 43.18043 -2.65713 13251 ft 344 kts 301°
2026-04-27 19:59 43.19324 -2.68471 12647 ft 341 kts 301°
2026-04-27 19:59 43.20586 -2.71195 12042 ft 338 kts 301°
2026-04-27 20:00 43.21839 -2.73906 11407 ft 334 kts 301°
2026-04-27 20:00 43.23079 -2.76592 10574 ft 335 kts 302°
2026-04-27 20:00 43.24321 -2.79281 10156 ft 328 kts 302°
2026-04-27 20:00 43.25515 -2.81860 10032 ft 313 kts 302°
2026-04-27 20:01 43.26653 -2.84332 9905 ft 300 kts 302°
2026-04-27 20:01 43.27729 -2.86680 9781 ft 288 kts 302°
2026-04-27 20:01 43.28778 -2.88967 9656 ft 278 kts 302°
2026-04-27 20:01 43.29798 -2.91186 9481 ft 270 kts 302°
2026-04-27 20:02 43.30903 -2.93254 9180 ft 268 kts 314°
2026-04-27 20:02 43.32160 -2.95107 8857 ft 262 kts 313°
2026-04-27 20:02 43.33390 -2.96922 8545 ft 256 kts 313°
2026-04-27 20:02 43.34589 -2.98692 8237 ft 249 kts 313°
2026-04-27 20:03 43.35753 -3.00410 7943 ft 242 kts 313°
2026-04-27 20:03 43.36882 -3.02077 7657 ft 235 kts 314°
2026-04-27 20:03 43.37979 -3.03702 7379 ft 229 kts 314°
2026-04-27 20:03 43.39049 -3.05288 7105 ft 224 kts 314°
2026-04-27 20:04 43.40102 -3.06850 6776 ft 222 kts 313°
2026-04-27 20:04 43.41158 -3.08420 6469 ft 223 kts 314°
2026-04-27 20:04 43.42202 -3.09972 6235 ft 218 kts 314°
2026-04-27 20:04 43.43218 -3.11484 6233 ft 215 kts 314°
2026-04-27 20:05 43.44237 -3.12999 6233 ft 215 kts 314°
2026-04-27 20:05 43.45254 -3.14509 6209 ft 213 kts 314°
2026-04-27 20:05 43.46262 -3.16007 5945 ft 213 kts 314°
2026-04-27 20:05 43.47235 -3.17548 5678 ft 212 kts 311°
2026-04-27 20:06 43.48205 -3.19079 5402 ft 212 kts 313°
2026-04-27 20:06 43.49164 -3.20575 5142 ft 211 kts 313°
2026-04-27 20:06 43.50108 -3.22139 4892 ft 209 kts 303°
2026-04-27 20:06 43.50569 -3.24006 4646 ft 208 kts 273°
2026-04-27 20:07 43.50294 -3.25960 4262 ft 212 kts 240°
2026-04-27 20:07 43.49325 -3.27421 4072 ft 204 kts 209°
2026-04-27 20:07 43.48023 -3.28024 3769 ft 202 kts 180°
2026-04-27 20:07 43.46666 -3.27646 3504 ft 196 kts 149°
2026-04-27 20:08 43.45615 -3.26498 3484 ft 196 kts 131°
2026-04-27 20:08 43.44653 -3.25147 3480 ft 195 kts 132°
2026-04-27 20:08 43.43717 -3.23832 3483 ft 195 kts 132°
2026-04-27 20:08 43.42767 -3.22495 3488 ft 195 kts 132°
2026-04-27 20:09 43.41817 -3.21164 3491 ft 195 kts 132°
2026-04-27 20:09 43.40869 -3.19830 3490 ft 195 kts 131°
2026-04-27 20:09 43.40095 -3.18325 3496 ft 189 kts 117°
2026-04-27 20:09 43.39498 -3.16803 3482 ft 173 kts 115°
2026-04-27 20:10 43.38966 -3.15364 3492 ft 172 kts 114°
2026-04-27 20:10 43.38424 -3.13880 3486 ft 174 kts 114°
2026-04-27 20:10 43.37881 -3.12386 3361 ft 175 kts 114°
2026-04-27 20:10 43.37339 -3.10896 3156 ft 174 kts 114°
2026-04-27 20:11 43.36801 -3.09415 2933 ft 172 kts 114°
2026-04-27 20:11 43.36267 -3.07948 2696 ft 171 kts 113°
2026-04-27 20:11 43.35737 -3.06492 2456 ft 167 kts 114°
2026-04-27 20:11 43.35230 -3.05099 2229 ft 158 kts 114°
2026-04-27 20:12 43.34756 -3.03799 2028 ft 150 kts 114°
2026-04-27 20:12 43.34436 -3.02916 1898 ft 159 kts 114°
2026-04-27 20:12 43.33809 -3.01198 1597 ft 141 kts 114°
2026-04-27 20:12 43.33371 -2.99996 1411 ft 141 kts 115°
2026-04-27 20:13 43.32938 -2.98809 1224 ft 140 kts 115°
2026-04-27 20:13 43.32497 -2.97600 1031 ft 140 kts 115°
2026-04-27 20:13 43.32062 -2.96408 845 ft 140 kts 115°
2026-04-27 20:13 43.31624 -2.95221 647 ft 138 kts 115°
2026-04-27 20:14 43.31203 -2.94054 447 ft 138 kts 114°
2026-04-27 20:14 43.30771 -2.92878 258 ft 138 kts 115°
2026-04-27 20:14 43.30351 -2.91727 160 ft 126 kts 115°
2026-04-27 20:14 43.30070 -2.90949 159 ft 51 kts 116°
2026-04-27 20:15 43.29998 -2.90749 158 ft 10 kts 117°
2026-04-27 20:15 43.29958 -2.90637 158 ft 17 kts 112°
2026-04-27 20:15 43.29927 -2.90445 158 ft 24 kts 95°
2026-04-27 20:15 43.29935 -2.90255 158 ft 14 kts 73°
2026-04-27 20:16 43.29953 -2.90228 158 ft 6 kts 19°
2026-04-27 20:16 43.30002 -2.90262 158 ft 10 kts 304°
2026-04-27 20:16 43.30036 -2.90348 158 ft 11 kts 297°
2026-04-27 20:16 43.30070 -2.90444 158 ft 12 kts 296°
2026-04-27 20:17 43.30109 -2.90550 158 ft 12 kts 304°
2026-04-27 20:17 43.30179 -2.90559 158 ft 12 kts 26°
2026-04-27 20:17 43.30255 -2.90540 158 ft 9 kts 323°
2026-04-27 20:17 43.30291 -2.90573 158 ft 9 kts 327°
2026-04-27 20:18 43.30345 -2.90637 158 ft 3 kts 301°
2026-04-27 20:18 43.30346 -2.90638 158 ft 0 kts 300°
2026-04-27 20:22 43.30359 -2.90662 158 ft 6 kts 330°
2026-04-27 20:22 43.30398 -2.90651 158 ft 3 kts 25°
2026-04-27 20:22 43.30412 -2.90642 158 ft 2 kts 25°
2026-04-27 20:22 43.30417 -2.90639 158 ft 0 kts 26°